Change the Weather History Date:

Thursday, April 3, 2014

  Actual Average Record
Temperature  
Mean Temperature 34 °F -  
Max Temperature 37 °F 46 °F 74 °F (1956)
Min Temperature 30 °F 29 °F 6 °F (1954)
Degree Days  
Heating Degree Days 32    
Moisture  
Dew Point 24 °F    
Average Humidity 66    
Maximum Humidity 78    
Minimum Humidity 52    
Precipitation  
Precipitation 0.02 in - - ()
Sea Level Pressure  
Sea Level Pressure 29.99 in    
Wind  
Wind Speed 13 mph (ENE)    
Max Wind Speed 16 mph    
Max Gust Speed 23 mph    
Visibility 9 miles    
Events Snow    
Averages and records for this station are not official NWS values.
T = Trace of Precipitation, MM = Missing Value Source: NWS Daily Summary

Daily Weather History Graph

Daily Weather History Graph

Search for Another Location

Airport or City:

Trip Planner

Search our weather history database for the weather conditions in past years. The results will help you decide how hot, cold, wet, or windy it might be!

Date:

Astronomy

Apr. 03, 2014 Rise Set
Actual Time 6:31 AM CDT 7:23 PM CDT
Civil Twilight 6:02 AM CDT 7:53 PM CDT
Nautical Twilight 5:27 AM CDT 8:27 PM CDT
Astronomical Twilight 4:51 AM CDT 9:04 PM CDT
Moon 8:54 AM CDT (4/3) 11:50 PM CDT (4/3)
Length of Visible Light 13h 50m
Length of Day
12h 51m
Waxing Crescent, 17% of the Moon is Illuminated
Apr 3
Waxing Crescent
Apr 7
First Quarter
Apr 15
Full
Apr 22
Last Quarter
Apr 29
New

Hourly Weather History & Observations

Time (CDT) Temp. Windchill Dew Point Humidity Pressure Visibility Wind Dir Wind Speed Gust Speed Precip Events Conditions
12:53 AM 35.1 °F 27.9 °F 21.0 °F 57% 30.17 in 10.0 mi ENE 9.2 mph - N/A   Overcast
1:53 AM 36.0 °F 28.0 °F 19.9 °F 52% 30.15 in 10.0 mi East 11.5 mph - N/A   Overcast
2:53 AM 35.1 °F 27.4 °F 21.9 °F 59% 30.14 in 10.0 mi NE 10.4 mph - 0.00 in   Overcast
3:53 AM 35.1 °F 25.9 °F 19.9 °F 54% 30.13 in 9.0 mi ENE 13.8 mph 23.0 mph 0.00 in   Overcast
4:53 AM 34.0 °F 24.2 °F 21.0 °F 59% 30.12 in 10.0 mi NE 15.0 mph - 0.00 in   Overcast
5:53 AM 33.1 °F 23.9 °F 21.9 °F 64% 30.11 in 10.0 mi ENE 12.7 mph - 0.00 in   Overcast
6:17 AM 32.0 °F 21.6 °F 23.0 °F 69% 30.08 in 2.5 mi NE 15.0 mph 21.9 mph 0.01 in Snow Light Snow
6:26 AM 30.9 °F 19.8 °F 23.0 °F 72% 30.07 in 1.8 mi ENE 16.1 mph - 0.02 in Snow Light Snow
6:32 AM 30.9 °F 20.7 °F 24.1 °F 76% 30.07 in 3.0 mi ENE 13.8 mph - 0.02 in Snow Light Snow
6:39 AM 30.9 °F 20.7 °F 24.1 °F 76% 30.06 in 8.0 mi ENE 13.8 mph 21.9 mph 0.02 in   Overcast
6:53 AM 30.9 °F 19.8 °F 23.0 °F 72% 30.09 in 10.0 mi ENE 16.1 mph - 0.02 in   Overcast
7:53 AM 32.0 °F 22.1 °F 21.9 °F 66% 30.09 in 10.0 mi ENE 13.8 mph - N/A   Overcast
9:53 AM 32.0 °F 21.6 °F 23.0 °F 69% 30.07 in 10.0 mi ENE 15.0 mph - N/A   Overcast
10:53 AM 33.1 °F 23.4 °F 24.1 °F 70% 30.03 in 10.0 mi ENE 13.8 mph - N/A   Overcast
11:53 AM 33.1 °F 23.4 °F 24.1 °F 70% 30.03 in 10.0 mi ENE 13.8 mph - 0.00 in   Overcast
12:53 PM 35.1 °F 25.9 °F 23.0 °F 61% 30.01 in 10.0 mi ENE 13.8 mph 20.7 mph 0.00 in   Overcast
1:53 PM 37.0 °F 28.1 °F 21.9 °F 54% 29.99 in 10.0 mi East 15.0 mph 21.9 mph N/A   Overcast
2:53 PM 37.0 °F 28.5 °F 23.0 °F 57% 29.93 in 10.0 mi East 13.8 mph - N/A   Overcast
3:35 PM 36.0 °F 27.5 °F 24.1 °F 62% 29.87 in 10.0 mi ENE 12.7 mph - N/A   Overcast
3:53 PM 36.0 °F 27.5 °F 25.0 °F 64% 29.91 in 10.0 mi ENE 12.7 mph - N/A   Overcast
4:31 PM 36.0 °F 28.0 °F 25.0 °F 64% 29.90 in 10.0 mi ENE 11.5 mph - N/A   Overcast
4:53 PM 36.0 °F 27.1 °F 25.0 °F 64% 29.93 in 10.0 mi ENE 13.8 mph 20.7 mph N/A   Overcast
5:53 PM 36.0 °F 28.0 °F 25.0 °F 64% 29.91 in 10.0 mi ENE 11.5 mph 20.7 mph N/A   Overcast
6:05 PM 36.0 °F 28.0 °F 26.1 °F 67% 29.86 in 10.0 mi ENE 11.5 mph - N/A   Overcast
6:53 PM 35.1 °F 26.4 °F 25.0 °F 67% 29.89 in 10.0 mi ENE 12.7 mph - N/A   Overcast
7:53 PM 35.1 °F 27.4 °F 26.1 °F 70% 29.87 in 10.0 mi ENE 10.4 mph - N/A   Overcast
8:53 PM 36.0 °F 29.6 °F 25.0 °F 64% 29.88 in 10.0 mi East 8.1 mph - N/A   Overcast
10:53 PM 35.1 °F 25.9 °F 28.0 °F 76% 29.79 in 10.0 mi East 13.8 mph - N/A   Overcast
11:28 PM 35.1 °F 25.9 °F 28.9 °F 78% 29.72 in 10.0 mi East 13.8 mph - N/A   Overcast
11:53 PM 35.1 °F 26.4 °F 28.9 °F 78% 29.74 in 10.0 mi East 12.7 mph - N/A   Overcast